Погода в Купрееве

Россия / Владимирская область     55°19′53″N   41°01′24″E
темп.,
°C
ветер,
м/с
пор.,
м/с
влажн.,
%
обл.,
%
осадки,
мм/ч
давл.,
гПа
погр.,
м
5 августа, чт
чт500:00+14сз226858 0.0 101727
03:00+13с11739 0.0 101711
06:00+15вюв11718 0.0 101822
09:00+22вюв12443 0.0 1017631
12:00+25ю2236100 0.0 10172185
15:00+25ю2335100 0.0 10162197
18:00+24ю1247100 0.0 1015214
21:00+20вюв2556100 0.0 1015110
6 августа, пт
пт600:00+18вюв2359100 0.0 101575
03:00+16юв266868 0.0 1014117
06:00+16ююв2580100 0.1 1014145
09:00+20ююв2672100 0.6 1014345
12:00+25ю5750100 0.1 10141109
15:00+20в2675100 0.3 1013185
18:00+19всв3868100 0.0 1012238
21:00+19всв41069100 0.0 1011315
7 августа, сб
сб700:00+18в387697 0.1 1011176
03:00+17всв227811 0.3 101120
06:00+17юв3983100 0.4 1011229
09:00+21ююв41168100 1.0 1011447
12:00+30ююз572910 0.0 10111234
15:00+28ююв483755 0.0 1011562
18:00+28ююв3840100 0.0 1010278
21:00+24в2249100 0.0 101219
8 августа, вс
вс800:00+24юв41345100 0.0 1012423
03:00+22юв4144861 0.0 1013388
06:00+21ю225196 0.0 101347
09:00+25юз233993 0.0 1014545
12:00+26зюз3343100 0.0 1015698
15:00+28ю123697 0.0 1014740
18:00+24зюз2360100 0.1 101580
21:00+21з1172100 0.1 101612
9 августа, пн
пн900:00+18сз23875 0.0 101748
03:00+17с119519 0.0 101711
06:00+18ссз118713 0.0 101741
09:00+24ссз125479 0.0 1017525
12:00+28зсз223854 0.0 10171680
15:00+29зсз23345 0.0 10172105
18:00+27зсз244422 0.0 1017241
21:00+21сз22641 0.0 101713